Location: Zagreb
(45.8000°N, 16.0000°E)
Time: 19:06:33
(UTC+02:00)

A-11 Canister half - Pass Details

Date: 09 August 2022
Orbit: 1524 x 1684 km, 47.3° (Epoch: 05 October)

Event Time Altitude Azimuth Distance (km) Brightness Sun altitude
Rises 07:16:59 0° 233° (SW) 4,913 11.1 13.9°
Reaches altitude 10° 07:20:09 10° 230° (SW) 3,935 10.7 14.5°
Maximum altitude 07:30:10 68° 151° (SSE) 1,793 9.8 16.2°
Drops below altitude 10° 07:40:09 10° 72° (ENE) 3,922 13.1 17.9°
Sets 07:43:17 0° 70° (ENE) 4,896 13.1 18.5°
